DW0664 Weather Reports


Display with metric or nautical units.
time (UTC)temp
F
wind
direction
speed
MPH
gust
MPH
rain 1hr
in
rain 24hr
in
rain mn
in
humidity
%
barometer
mb
20260903074321 78 55 0.0 0.0 0.00 0.00 0.00 97 1015.2
20260903073816 78 63 0.0 0.0 0.00 0.00 0.00 97 1015.4
20260903073311 78 55 0.0 0.0 0.00 0.00 0.00 97 1015.2
20260903072807 78 64 0.0 1.0 0.00 0.00 0.00 97 1015.0
20260903072306 78 51 0.0 0.0 0.00 0.00 0.00 97 1015.2
20260903071800 78 56 0.0 0.0 0.00 0.00 0.00 97 1014.9
20260903071256 78 55 1.0 2.0 0.00 0.00 0.00 97 1015.0
20260903070750 78 71 0.0 0.0 0.00 0.00 0.00 96 1015.0
20260903070245 78 60 0.0 1.0 0.00 0.00 0.00 96 1015.0
20260903065740 78 67 0.0 1.0 0.00 0.00 0.00 96 1015.4
20260903065240 78 52 1.0 2.0 0.00 0.00 0.00 96 1015.3
20260903064738 78 87 1.0 3.0 0.00 0.00 0.00 96 1015.4
20260903064235 78 53 0.0 2.0 0.00 0.00 0.00 96 1015.4
20260903063731 78 86 1.0 2.0 0.00 0.00 0.00 96 1015.5
20260903063231 77 76 1.0 2.0 0.00 0.00 0.00 96 1015.4
20260903062727 77 95 2.0 6.0 0.00 0.00 0.00 96 1015.5
20260903062226 77 63 1.0 2.0 0.00 0.00 0.00 96 1015.5
20260903061723 77 83 2.0 3.0 0.00 0.00 0.00 96 1015.5
20260903061221 77 61 0.0 1.0 0.00 0.00 0.00 95 1015.7
20260903060717 77 49 0.0 1.0 0.00 0.00 0.00 95 1015.5
20260903060212 77 88 0.0 2.0 0.00 0.00 0.00 95 1015.4
20260903055709 77 118 2.0 4.0 0.00 0.00 0.00 95 1015.6
20260903055208 76 100 2.0 3.0 0.00 0.00 0.00 96 1015.5
20260903054703 76 15 2.0 3.0 0.00 0.00 0.00 96 1015.6
20260903054158 76 50 0.0 4.0 0.00 0.00 0.00 97 1015.6
20260903053654 76 48 0.0 3.0 0.00 0.00 0.00 97 1015.3
20260903053149 76 72 0.0 3.0 0.00 0.00 0.00 97 1015.5
20260903052645 76 74 2.0 3.0 0.00 0.00 0.00 98 1015.6
20260903052141 76 90 1.0 6.0 0.00 0.00 0.00 98 1015.8
20260903051635 76 59 1.0 2.0 0.00 0.00 0.00 97 1015.7
20260903051132 76 52 0.0 2.0 0.00 0.00 0.00 97 1015.7
20260903050631 76 80 1.0 3.0 0.00 0.00 0.00 97 1015.6
20260903050126 76 93 2.0 7.0 0.00 0.00 0.00 97 1016.0
20260903045625 75 87 1.0 3.0 0.00 0.57 0.57 97 1016.0
20260903045122 75 86 2.0 4.0 0.00 0.57 0.57 98 1015.8
20260903044618 75 53 1.0 4.0 0.00 0.57 0.57 98 1015.8
20260903044113 75 113 4.0 4.0 0.00 0.57 0.57 98 1015.9
20260903043609 75 125 1.0 7.0 0.00 0.57 0.57 98 1015.9
20260903043108 75 86 1.0 3.0 0.00 0.57 0.57 98 1016.0
20260903042558 75 70 1.0 4.0 0.00 0.57 0.57 98 1015.9
20260903042053 75 78 1.0 2.0 0.00 0.57 0.57 98 1016.1
20260903041549 75 63 1.0 3.0 0.00 0.57 0.57 98 1015.9
20260903041045 75 115 5.0 7.0 0.00 0.57 0.57 98 1016.1
20260903040543 75 77 2.0 6.0 0.00 0.57 0.57 98 1016.2
20260903040040 75 96 1.0 4.0 0.00 0.57 0.57 98 1016.1
20260903035535 76 129 3.0 6.0 0.00 0.57 0.57 98 1016.1
20260903035026 76 104 4.0 4.0 0.00 0.57 0.57 98 1016.2
20260903034525 76 72 3.0 6.0 0.00 0.57 0.57 98 1016.2
20260903034020 76 78 1.0 6.0 0.00 0.57 0.57 98 1016.2
20260903033515 76 63 2.0 7.0 0.00 0.57 0.57 98 1016.2
20260903033011 76 84 2.0 7.0 0.00 0.57 0.57 98 1016.3
20260903032506 76 40 2.0 6.0 0.00 0.57 0.57 98 1016.3
20260903032001 77 90 4.0 6.0 0.00 0.57 0.57 98 1016.4
20260903031500 77 88 2.0 4.0 0.00 0.57 0.57 98 1016.3
20260903030950 77 98 3.0 6.0 0.00 0.57 0.57 98 1016.2
20260903030446 77 51 2.0 8.0 0.00 0.57 0.57 98 1016.0
20260903025941 77 97 2.0 3.0 0.00 0.57 0.57 98 1015.8
20260903025437 77 104 3.0 6.0 0.00 0.57 0.57 98 1015.9
20260903024933 77 99 2.0 6.0 0.07 0.57 0.57 97 1015.9
20260903024431 77 133 3.0 6.0 0.31 0.57 0.57 97 1015.6
20260903023926 78 137 4.0 6.0 0.83 0.56 0.56 97 1016.0
20260903023423 78 18 2.0 10.0 1.37 0.50 0.50 96 1016.0
20260903022918 78 98 2.0 6.0 1.87 0.39 0.39 95 1016.1
20260903022416 80 145 2.0 3.0 1.32 0.22 0.22 92 1016.3
20260903021915 81 139 2.0 4.0 0.42 0.07 0.07 90 1016.1
20260903021411 82 347 3.0 4.0 0.00 0.00 0.00 86 1016.0
20260903020910 82 35 0.0 1.0 0.00 0.00 0.00 82 1015.9
20260903020406 82 27 1.0 2.0 0.00 0.00 0.00 82 1015.5
20260903015900 82 44 0.0 3.0 0.00 0.00 0.00 82 1014.8
20260903015350 82 67 2.0 7.0 0.00 0.00 0.00 82 1014.4
20260903014845 82 97 4.0 8.0 0.00 0.00 0.00 81 1014.6
20260903014340 83 40 1.0 3.0 0.00 0.00 0.00 79 1014.5
20260903013835 83 88 2.0 3.0 0.00 0.00 0.00 79 1014.4
20260903013334 82 35 1.0 1.0 0.00 0.00 0.00 79 1014.2
20260903012833 82 52 1.0 3.0 0.00 0.00 0.00 79 1014.0
20260903012327 82 66 1.0 2.0 0.00 0.00 0.00 80 1013.9
20260903011821 82 55 1.0 2.0 0.00 0.00 0.00 79 1013.9
20260903011321 82 56 3.0 4.0 0.00 0.00 0.00 79 1014.1
20260903010816 83 49 0.0 2.0 0.00 0.00 0.00 78 1014.2
20260903010311 83 111 0.0 1.0 0.00 0.00 0.00 78 1013.6
20260903005804 83 67 1.0 2.0 0.00 0.00 0.00 77 1013.7
20260903005259 83 155 2.0 3.0 0.00 0.00 0.00 77 1013.9
20260903004755 83 75 2.0 3.0 0.00 0.00 0.00 76 1013.8
20260903004250 83 62 1.0 4.0 0.00 0.00 0.00 76 1014.0
20260903003746 84 68 2.0 3.0 0.00 0.00 0.00 75 1014.1
20260903003240 84 40 1.0 2.0 0.00 0.00 0.00 75 1013.9
20260903002735 84 58 0.0 2.0 0.00 0.00 0.00 74 1013.7
20260903002229 84 113 1.0 2.0 0.00 0.00 0.00 75 1013.6
20260903001725 84 68 0.0 1.0 0.00 0.00 0.00 75 1013.7
20260903001225 84 60 0.0 1.0 0.00 0.00 0.00 76 1013.6
20260903000720 84 100 1.0 1.0 0.00 0.00 0.00 77 1013.6
20260903000219 84 25 0.0 1.0 0.00 0.00 0.00 77 1013.8
20260902235718 85 53 1.0 2.0 0.00 0.00 0.00 77 1013.9
20260902235214 86 83 1.0 1.0 0.00 0.00 0.00 73 1013.9
20260902234713 86 68 1.0 2.0 0.00 0.00 0.00 72 1014.0
20260902234212 87 56 0.0 4.0 0.00 0.00 0.00 71 1014.0
20260902233712 87 30 0.0 2.0 0.00 0.00 0.00 70 1014.0
20260902233212 88 67 1.0 2.0 0.00 0.00 0.00 68 1014.1
20260902232710 89 73 0.0 2.0 0.00 0.00 0.00 66 1013.5
20260902232205 90 46 1.0 2.0 0.00 0.00 0.00 65 1013.4
20260902231659 90 204 1.0 1.0 0.00 0.00 0.00 64 1013.5
20260902231154 90 97 1.0 7.0 0.00 0.00 0.00 64 1013.3
20260902230650 92 177 4.0 9.0 0.00 0.00 0.00 61 1013.4
20260902230148 93 44 2.0 2.0 0.00 0.00 0.00 58 1013.1
20260902225643 94 82 1.0 6.0 0.00 0.00 0.00 56 1013.1
20260902225142 95 83 0.0 1.0 0.00 0.00 0.00 54 1013.1
20260902224641 95 51 0.0 1.0 0.00 0.00 0.00 52 1012.9
20260902224137 97 25 1.0 1.0 0.00 0.00 0.00 49 1012.9
20260902223633 99 61 1.0 2.0 0.00 0.00 0.00 47 1012.8
20260902223132 101 207 2.0 4.0 0.00 0.00 0.00 44 1013.1
20260902222626 101 83 1.0 1.0 0.00 0.00 0.00 38 1012.7
20260902222125 101 26 2.0 3.0 0.00 0.00 0.00 38 1012.8
20260902221619 101 315 3.0 7.0 0.00 0.00 0.00 39 1012.6
20260902221114 101 6 0.0 1.0 0.00 0.00 0.00 38 1012.5
20260902220610 100 36 2.0 2.0 0.00 0.00 0.00 39 1012.7
20260902220104 101 42 1.0 2.0 0.00 0.00 0.00 38 1012.5
20260902215601 102 83 0.0 1.0 0.00 0.00 0.00 38 1012.6
20260902215055 102 191 1.0 2.0 0.00 0.00 0.00 39 1012.9
20260902214550 101 322 3.0 4.0 0.00 0.00 0.00 39 1012.8
20260902214049 101 65 1.0 3.0 0.00 0.00 0.00 39 1012.7
20260902213545 102 30 1.0 2.0 0.00 0.00 0.00 38 1013.0
20260902213044 101 78 2.0 3.0 0.00 0.00 0.00 38 1012.9
20260902212539 102 38 1.0 2.0 0.00 0.00 0.00 38 1013.1
20260902212036 102 48 1.0 2.0 0.00 0.00 0.00 37 1013.0
20260902211532 102 329 1.0 4.0 0.00 0.00 0.00 37 1013.3
20260902211026 102 31 2.0 2.0 0.00 0.00 0.00 37 1013.4
20260902210521 102 343 2.0 4.0 0.00 0.00 0.00 37 1013.3
20260902210020 102 12 1.0 2.0 0.00 0.00 0.00 38 1013.2
20260902205514 101 38 0.0 1.0 0.00 0.00 0.00 38 1013.3
20260902205010 101 320 3.0 4.0 0.00 0.00 0.00 39 1013.6
20260902204509 100 5 1.0 2.0 0.00 0.00 0.00 39 1013.4
20260902204005 101 15 2.0 3.0 0.00 0.00 0.00 38 1013.5
20260902203500 103 344 2.0 4.0 0.00 0.00 0.00 37 1013.4
20260902202959 102 213 1.0 3.0 0.00 0.00 0.00 38 1013.4
20260902202455 103 226 2.0 3.0 0.00 0.00 0.00 37 1013.5
20260902201952 102 359 2.0 2.0 0.00 0.00 0.00 36 1013.4
20260902201447 103 180 3.0 3.0 0.00 0.00 0.00 37 1013.5
20260902200946 102 289 2.0 3.0 0.00 0.00 0.00 38 1013.7
20260902200441 102 89 2.0 3.0 0.00 0.00 0.00 38 1013.9
20260902195937 103 340 2.0 3.0 0.00 0.00 0.00 37 1013.7
20260902195432 102 108 1.0 2.0 0.00 0.00 0.00 37 1014.0
20260902194932 104 310 1.0 3.0 0.00 0.00 0.00 37 1014.0
20260902194431 103 344 3.0 6.0 0.00 0.00 0.00 37 1014.2
20260902193926 103 41 1.0 4.0 0.00 0.00 0.00 38 1014.3
20260902193423 102 357 1.0 2.0 0.00 0.00 0.00 38 1014.3
20260902192921 102 0 2.0 3.0 0.00 0.00 0.00 38 1014.4
20260902192420 101 198 2.0 3.0 0.00 0.00 0.00 40 1014.4
20260902191919 101 152 2.0 3.0 0.00 0.00 0.00 40 1014.6
20260902191415 102 59 3.0 4.0 0.00 0.00 0.00 38 1014.9
20260902190910 101 160 1.0 4.0 0.00 0.00 0.00 39 1014.9
20260902190405 100 48 1.0 8.0 0.00 0.00 0.00 42 1014.9
20260902185901 100 40 1.0 2.0 0.00 0.00 0.00 41 1015.0
20260902185356 100 36 1.0 4.0 0.00 0.00 0.00 41 1014.9
20260902184852 98 345 1.0 4.0 0.00 0.00 0.00 42 1015.3
20260902184347 98 60 1.0 2.0 0.00 0.00 0.00 43 1015.3
20260902183842 100 135 2.0 2.0 0.00 0.00 0.00 42 1015.5
20260902183338 99 26 2.0 3.0 0.00 0.00 0.00 43 1015.5
20260902182828 99 3 2.0 2.0 0.00 0.00 0.00 43 1015.6
20260902182324 98 44 2.0 4.0 0.00 0.00 0.00 43 1015.5
20260902181821 98 352 4.0 8.0 0.00 0.00 0.00 44 1015.9
20260902181316 99 6 1.0 1.0 0.00 0.00 0.00 43 1015.8
20260902180810 98 54 2.0 4.0 0.00 0.00 0.00 45 1016.0
20260902180306 99 6 1.0 1.0 0.00 0.00 0.00 43 1016.1
20260902175801 98 11 1.0 3.0 0.00 0.00 0.00 45 1016.4
20260902175256 98 349 2.0 4.0 0.00 0.00 0.00 44 1016.2
20260902174757 98 9 1.0 2.0 0.00 0.00 0.00 43 1016.3
20260902174253 97 133 2.0 3.0 0.00 0.00 0.00 45 1016.4
20260902173749 97 337 2.0 4.0 0.00 0.00 0.00 45 1016.7
20260902173248 97 22 1.0 2.0 0.00 0.00 0.00 45 1016.7
20260902172743 97 65 1.0 2.0 0.00 0.00 0.00 45 1016.7
20260902172238 95 49 0.0 1.0 0.00 0.00 0.00 46 1017.0
20260902171733 95 81 2.0 4.0 0.00 0.00 0.00 47 1016.8
20260902171229 95 338 2.0 3.0 0.00 0.00 0.00 46 1016.9
20260902170724 95 26 1.0 6.0 0.00 0.00 0.00 47 1017.2
20260902170219 95 165 2.0 3.0 0.00 0.00 0.00 47 1017.1
20260902165719 96 344 2.0 3.0 0.00 0.00 0.00 48 1017.2
20260902165214 96 126 1.0 2.0 0.00 0.00 0.00 48 1017.2
20260902164709 95 57 2.0 3.0 0.00 0.00 0.00 49 1017.4
20260902164208 95 345 2.0 3.0 0.00 0.00 0.00 48 1017.2
20260902163703 95 335 1.0 4.0 0.00 0.00 0.00 49 1017.3
20260902163203 94 58 2.0 3.0 0.00 0.00 0.00 50 1017.5
20260902162702 93 289 1.0 2.0 0.00 0.00 0.00 52 1017.5
20260902162156 92 36 2.0 4.0 0.00 0.00 0.00 54 1017.4
20260902161651 93 31 2.0 3.0 0.00 0.00 0.00 53 1017.5
20260902161147 92 66 0.0 4.0 0.00 0.00 0.00 54 1017.6
20260902160644 91 55 0.0 3.0 0.00 0.00 0.00 55 1017.5
20260902160138 92 333 3.0 4.0 0.00 0.00 0.00 54 1017.5
20260902155636 91 352 1.0 3.0 0.00 0.00 0.00 57 1017.6
20260902155130 91 80 1.0 2.0 0.00 0.00 0.00 57 1017.5
20260902154625 90 156 1.0 3.0 0.00 0.00 0.00 60 1017.7
20260902154120 91 113 1.0 3.0 0.00 0.00 0.00 59 1017.6
20260902153619 90 33 0.0 2.0 0.00 0.00 0.00 59 1017.5
20260902153114 90 329 1.0 3.0 0.00 0.00 0.00 60 1017.5
20260902152610 90 6 2.0 2.0 0.00 0.00 0.00 61 1017.5
20260902152105 90 40 1.0 2.0 0.00 0.00 0.00 62 1017.6
20260902151601 90 322 3.0 3.0 0.00 0.00 0.00 62 1017.5
20260902151100 89 223 1.0 2.0 0.00 0.00 0.00 64 1017.5
20260902150555 89 312 4.0 4.0 0.00 0.00 0.00 64 1017.5
20260902150051 88 321 0.0 3.0 0.00 0.00 0.00 67 1017.6
20260902145546 88 114 0.0 2.0 0.00 0.00 0.00 67 1017.5
20260902145046 87 93 0.0 2.0 0.00 0.00 0.00 68 1017.6
20260902144543 85 62 0.0 3.0 0.00 0.00 0.00 72 1017.5
20260902144043 86 41 1.0 2.0 0.00 0.00 0.00 71 1017.7
20260902143537 86 58 0.0 1.0 0.00 0.00 0.00 71 1017.4
20260902143033 85 14 1.0 2.0 0.00 0.00 0.00 72 1017.7
20260902142529 85 88 0.0 1.0 0.00 0.00 0.00 72 1017.6
20260902142024 83 55 0.0 1.0 0.00 0.00 0.00 75 1017.6
20260902141518 83 88 0.0 1.0 0.00 0.00 0.00 76 1017.7
20260902141013 82 41 0.0 0.0 0.00 0.00 0.00 77 1017.8
20260902140508 82 61 0.0 0.0 0.00 0.00 0.00 77 1017.8
20260902140003 81 17 1.0 1.0 0.00 0.00 0.00 78 1017.6
20260902135457 81 60 0.0 0.0 0.00 0.00 0.00 79 1017.7
20260902134951 81 61 0.0 1.0 0.00 0.00 0.00 79 1017.5
20260902134447 81 55 0.0 0.0 0.00 0.00 0.00 79 1017.6
20260902133942 81 53 0.0 0.0 0.00 0.00 0.00 79 1017.7
20260902133437 80 54 0.0 0.0 0.00 0.00 0.00 80 1017.5
20260902132932 80 54 0.0 0.0 0.00 0.00 0.00 80 1017.6
20260902132427 80 54 0.0 0.0 0.00 0.00 0.00 80 1017.5
20260902131921 80 58 0.0 0.0 0.00 0.00 0.00 81 1017.4
20260902131419 80 54 0.0 0.0 0.00 0.00 0.00 81 1017.5
20260902130918 79 54 0.0 0.0 0.00 0.00 0.00 81 1017.3
20260902130414 79 56 0.0 0.0 0.00 0.00 0.00 82 1017.2
20260902125914 79 59 0.0 0.0 0.00 0.00 0.00 82 1017.0
20260902125410 79 57 0.0 0.0 0.00 0.00 0.00 82 1016.8
20260902124906 79 58 0.0 0.0 0.00 0.00 0.00 82 1016.8
20260902124402 79 54 0.0 0.0 0.00 0.00 0.00 81 1016.9
20260902123856 79 47 0.0 1.0 0.00 0.00 0.00 81 1016.6
20260902123353 79 48 0.0 1.0 0.00 0.00 0.00 81 1016.6
20260902122851 79 59 0.0 0.0 0.00 0.00 0.00 81 1016.5
20260902122348 79 58 0.0 0.0 0.00 0.00 0.00 81 1016.6
20260902121847 79 49 0.0 1.0 0.00 0.00 0.00 80 1016.4
20260902121342 79 116 0.0 1.0 0.00 0.00 0.00 80 1016.4
20260902120838 79 51 0.0 0.0 0.00 0.00 0.00 80 1016.4
20260902120334 79 35 0.0 1.0 0.00 0.00 0.00 80 1016.5
20260902115828 79 36 0.0 1.0 0.00 0.00 0.00 80 1016.4
20260902115325 79 19 0.0 1.0 0.00 0.00 0.00 80 1016.4
20260902114821 79 49 0.0 0.0 0.00 0.00 0.00 80 1016.3
20260902114317 79 55 0.0 0.0 0.00 0.00 0.00 80 1016.5
20260902113816 79 47 0.0 2.0 0.00 0.00 0.00 81 1016.3
20260902113312 79 40 0.0 0.0 0.00 0.00 0.00 81 1016.4
20260902112811 79 58 0.0 0.0 0.00 0.00 0.00 81 1016.6
20260902112308 78 55 0.0 0.0 0.00 0.00 0.00 82 1016.5
20260902111803 78 58 0.0 0.0 0.00 0.00 0.00 82 1016.5
20260902111259 78 57 0.0 0.0 0.00 0.00 0.00 82 1016.6
20260902110755 78 57 0.0 0.0 0.00 0.00 0.00 82 1016.3
20260902110251 78 59 0.0 0.0 0.00 0.00 0.00 83 1016.5
20260902105750 78 55 0.0 0.0 0.00 0.00 0.00 83 1016.6
20260902105246 78 56 0.0 0.0 0.00 0.00 0.00 83 1016.4
20260902104741 78 55 0.0 0.0 0.00 0.00 0.00 83 1016.6
20260902104237 78 57 0.0 0.0 0.00 0.00 0.00 83 1016.5
20260902103736 78 57 0.0 0.0 0.00 0.00 0.00 83 1016.5
20260902103231 78 57 0.0 0.0 0.00 0.00 0.00 83 1016.7
20260902102726 78 57 0.0 0.0 0.00 0.00 0.00 83 1016.3
20260902102224 78 60 0.0 0.0 0.00 0.00 0.00 83 1016.5
20260902101719 78 60 0.0 0.0 0.00 0.00 0.00 83 1016.6
20260902101214 78 60 0.0 0.0 0.00 0.00 0.00 83 1016.5
20260902100708 78 60 0.0 0.0 0.00 0.00 0.00 83 1016.6
20260902100203 78 59 0.0 0.0 0.00 0.00 0.00 83 1016.5
20260902095703 78 58 0.0 0.0 0.00 0.00 0.00 83 1016.4
20260902095201 78 55 0.0 0.0 0.00 0.00 0.00 83 1016.5
20260902094656 78 55 0.0 0.0 0.00 0.00 0.00 83 1016.3
20260902094153 78 55 0.0 0.0 0.00 0.00 0.00 84 1016.4
20260902093652 78 55 0.0 0.0 0.00 0.00 0.00 84 1016.3
20260902093147 78 55 0.0 0.0 0.00 0.00 0.00 84 1016.4
20260902092642 78 55 0.0 0.0 0.00 0.00 0.00 84 1016.4
20260902092137 78 58 0.0 0.0 0.00 0.00 0.00 84 1016.5
20260902091632 78 59 0.0 0.0 0.00 0.00 0.00 84 1016.4
20260902091129 78 58 0.0 0.0 0.00 0.00 0.00 84 1016.6
20260902090624 78 59 0.0 0.0 0.00 0.00 0.00 84 1016.5
20260902090123 78 56 0.0 0.0 0.00 0.00 0.00 83 1016.5
20260902085618 78 55 0.0 0.0 0.00 0.00 0.00 83 1016.4
20260902085113 78 59 0.0 0.0 0.00 0.00 0.00 83 1016.1
20260902084609 78 55 0.0 0.0 0.00 0.00 0.00 82 1016.3
20260902084105 78 54 0.0 0.0 0.00 0.00 0.00 82 1016.0
20260902083600 78 56 0.0 0.0 0.00 0.00 0.00 82 1016.0
20260902083059 78 54 0.0 0.0 0.00 0.00 0.00 82 1016.1
20260902082555 78 56 0.0 0.0 0.00 0.00 0.00 82 1016.1
20260902082051 78 55 0.0 0.0 0.00 0.00 0.00 82 1016.2
20260902081548 78 55 0.0 0.0 0.00 0.00 0.00 82 1016.1
20260902081048 78 46 0.0 0.0 0.00 0.00 0.00 82 1016.3
20260902080543 78 53 0.0 0.0 0.00 0.00 0.00 82 1016.2
20260902080039 78 55 0.0 0.0 0.00 0.00 0.00 83 1016.4
20260902075538 78 54 0.0 0.0 0.00 0.00 0.00 82 1016.4
20260902075035 78 57 0.0 0.0 0.00 0.00 0.00 82 1016.4
20260902074530 78 59 0.0 0.0 0.00 0.00 0.00 82 1016.5